Location: Newark
(42.8481°N, 0.4872°E)
Time: 23:00:25
(UTC+00:00)

Transit 2A Rocket - Pass Details

Date: 05 November 2020
Orbit: 588 x 914 km, 66.7° (Epoch: 29 November)

Event Time Altitude Azimuth Distance (km) Brightness Sun altitude
Rises 08:29:25 0° 233° (SW) 3,538 8.3 16.6°
Reaches altitude 10° 08:32:07 10° 240° (WSW) 2,593 7.6 17.0°
Maximum altitude 08:37:48 40° 309° (NW) 1,289 5.9 17.7°
Drops below altitude 10° 08:43:16 10° 19° (NNE) 2,491 7.5 18.4°
Sets 08:45:50 0° 26° (NNE) 3,385 8.2 18.8°
